Hourly Data Report for July 13, 2013

All times are specified in Local Standard Time (LST). Add 1 hour to adjust for Daylight Saving Time where and when it is observed.

VICTORIA INTL A
BRITISH COLUMBIA

48°38'50.000" N
123°25'33.000" W
19.50 m
1018621
71799
YYJ

Download Data

Hourly Data (July 2013)
Hourly Data Report for July 13, 2013
Temp Definition
°C
Dew Point Temp Definition
°C
Rel Hum Definition
%
Wind Dir Definition
10's deg

Wind Spd Definition
km/h
Visibility Definition
km
Stn Press Definition
kPa
Hmdx Definition


Wind Chill Definition


Weather Definition


TIME
00:00 Legend Double Dagger 14.6 9.0 69 29 16 48.3 101.69     LegendNANA
01:00 Legend Double Dagger 13.9 8.4 69 29 17 48.3 101.73     Clear
02:00 Legend Double Dagger 13.5 9.0 74 29 17 48.3 101.79     LegendNANA
03:00 Legend Double Dagger 12.0 8.5 79 29 4 48.3 101.83     LegendNANA
04:00 Legend Double Dagger 11.9 8.8 81 27 7 48.3 101.87     Clear
05:00 Legend Double Dagger 10.6 8.0 84 26 7 48.3 101.90     LegendNANA
06:00 Legend Double Dagger 13.1 8.8 75 29 12 48.3 101.96     LegendNANA
07:00 Legend Double Dagger 14.1 9.6 74 29 11 48.3 102.01     Clear
08:00 Legend Double Dagger 16.3 9.1 62 29 10 48.3 102.04     LegendNANA
09:00 Legend Double Dagger 17.3 9.8 61 14 4 48.3 102.07     LegendNANA
10:00 Legend Double Dagger 18.8 9.7 55 9 5 48.3 102.07     Clear
11:00 Legend Double Dagger 19.6 9.6 52 5 15 48.3 102.06     LegendNANA
12:00 Legend Double Dagger 20.4 9.5 49 5 13 48.3 102.05     LegendNANA
13:00 Legend Double Dagger 20.9 9.9 49 9 15 48.3 102.02     Clear
14:00 Legend Double Dagger 21.3 9.0 45 9 11 48.3 101.98     LegendNANA
15:00 Legend Double Dagger 21.8 9.5 45 8 12 48.3 101.94     LegendNANA
16:00 Legend Double Dagger 22.1 8.4 41 10 9 48.3 101.90     Clear
17:00 Legend Double Dagger 22.7 7.1 36 13 10 48.3 101.85     LegendNANA
18:00 Legend Double Dagger 22.4 7.2 37 16 9 48.3 101.84     LegendNANA
19:00 Legend Double Dagger 20.8 7.6 42 14 8 48.3 101.82     Clear
20:00 Legend Double Dagger 18.5 9.1 54 16 3 48.3 101.81     LegendNANA
21:00 Legend Double Dagger 16.2 9.7 65 23 8 48.3 101.81     LegendNANA
22:00 Legend Double Dagger 16.9 11.5 70 30 11 48.3 101.80     Clear
23:00 Legend Double Dagger 13.9 10.0 77 22 3 48.3 101.82     LegendNANA

Notes on Data Quality.

Legend

  • E = Estimated
  • M = Missing
  • NA = Not Available
  • ‡ = Partner data that is not subject to review by the National Climate Archives
Date modified: